Powrót do katalogu

STARLINK-2475

AktywnyŁącznośćVLEO
NORAD 48133·PAYLOAD·🇺🇸 United States

Wystrzelony Apr 7, 2021 z Cape Canaveral Space Force Station

Loading…

Następne Przeloty (najbliższe 24 godziny)

TLE

ŚwieżeSource: CelesTrak SupGP

Epoka: Sep 15, 2026, 01:20 UTC

1 48133C 21027AT  26258.05604167  .00004151  00000+0  13347-3 0  2582
2 48133  53.1593   4.1205 0001341  86.3489 183.8304 15.31698914    11

Śledź STARLINK-2475 w czasie rzeczywistym z AllMySat

Download on the App Store